TimeEST,TemperatureF,Dew PointF,Humidity,Sea Level PressureIn,VisibilityMPH,Wind Direction,Wind SpeedMPH,Gust SpeedMPH,PrecipitationIn,Events,Conditions,WindDirDegrees,DateUTC
12:56 AM,24.1,21.0,88,30.21,10.0,Calm,Calm,-,N/A,,Mostly Cloudy,0,2012-11-06 05:56:00
1:56 AM,21.9,19.9,92,30.22,10.0,Calm,Calm,-,N/A,,Clear,0,2012-11-06 06:56:00
2:56 AM,19.9,18.0,92,30.22,10.0,Calm,Calm,-,N/A,,Clear,0,2012-11-06 07:56:00
3:56 AM,21.0,19.0,92,30.21,10.0,East,4.6,-,N/A,,Partly Cloudy,90,2012-11-06 08:56:00
4:56 AM,21.0,18.0,88,30.22,10.0,ENE,3.5,-,N/A,,Overcast,60,2012-11-06 09:56:00
5:56 AM,21.0,19.0,92,30.22,10.0,Calm,Calm,-,N/A,,Overcast,0,2012-11-06 10:56:00
6:56 AM,23.0,19.9,88,30.23,10.0,ENE,3.5,-,N/A,,Overcast,70,2012-11-06 11:56:00
7:56 AM,27.0,21.9,81,30.24,10.0,ENE,3.5,-,N/A,,Overcast,60,2012-11-06 12:56:00
8:56 AM,32.0,21.9,66,30.23,10.0,NE,5.8,-,N/A,,Clear,50,2012-11-06 13:56:00
9:56 AM,35.6,17.6,48,30.22,10.0,Calm,Calm,-,N/A,,Clear,0,2012-11-06 14:56:00
10:56 AM,37.9,18.0,45,30.25,10.0,Calm,Calm,-,N/A,,Overcast,0,2012-11-06 15:56:00
11:56 AM,39.0,19.0,45,30.22,10.0,Variable,4.6,-,N/A,,Partly Cloudy,0,2012-11-06 16:56:00
12:56 PM,39.9,19.0,43,30.20,10.0,Calm,Calm,-,N/A,,Clear,0,2012-11-06 17:56:00
1:56 PM,41.0,19.0,41,30.19,10.0,NNW,3.5,-,N/A,,Clear,340,2012-11-06 18:56:00
2:56 PM,41.0,19.0,41,30.18,10.0,North,5.8,-,N/A,,Clear,10,2012-11-06 19:56:00
3:56 PM,37.9,19.9,48,30.17,10.0,NE,8.1,-,N/A,,Clear,50,2012-11-06 20:56:00
4:56 PM,35.1,19.0,52,30.17,10.0,NNE,6.9,-,N/A,,Clear,20,2012-11-06 21:56:00
5:56 PM,32.0,21.0,64,30.17,10.0,NNE,6.9,-,N/A,,Clear,30,2012-11-06 22:56:00
6:56 PM,28.0,19.9,72,30.19,10.0,ENE,3.5,-,N/A,,Clear,60,2012-11-06 23:56:00
7:56 PM,27.0,19.9,75,30.19,10.0,Calm,Calm,-,N/A,,Clear,0,2012-11-07 00:56:00
8:56 PM,26.1,19.9,78,30.19,10.0,ENE,5.8,-,N/A,,Clear,60,2012-11-07 01:56:00
9:56 PM,25.0,19.0,78,30.19,10.0,NE,5.8,-,N/A,,Clear,40,2012-11-07 02:56:00
10:56 PM,25.0,19.0,78,30.17,10.0,NNE,6.9,-,N/A,,Clear,20,2012-11-07 03:56:00
11:56 PM,24.1,18.0,77,30.16,10.0,NE,6.9,-,N/A,,Clear,50,2012-11-07 04:56:00